Regional Weather Roundup
Issued by NWS

Home | Current Version | Previous Version | Graphics & Text | Print | Product List | Glossary On
Versions: 1 2 3 4 5 6 7 8 9 10 11 12 13 14 15 16 17 18 19 20 21 22 23 24 25 26 27 28 29 30 31 32 33 34 35 36 37 38 39 40 41 42 43 44 45 46 47 48 49 50
697
ASUS43 KLOT 220909
RWRIL

ILLINOIS REGIONAL WEATHER ROUNDUP
NATIONAL WEATHER SERVICE CHICAGO/ROMEOVILLE IL
400 AM CDT SUN OCT 22 2017

NOTE: "FAIR" INDICATES FEW OR NO CLOUDS BELOW 12,000 FEET WITH NO
SIGNIFICANT WEATHER AND/OR OBSTRUCTIONS TO VISIBILITY.

* THESE STATIONS ARE NOT UNDER NWS QUALITY CONTROL. THEY ALSO MAY NOT
  REPORT WEATHER SUCH AS PRECIPITATION OR FOG.

ILZ001-002-007-009-015-016-024-221000-
NORTHWEST ILLINOIS

CITY           SKY/WX    TMP DP  RH WIND       PRES   REMARKS
MOLINE         LGT RAIN  63  59  87 NW8       29.86F
STERLING*      CLOUDY    65  61  87 CALM        N/A
SAVANNA*       RAIN      63  59  87 W3        29.87S
$$

ILZ003-004-008-010-011-017-018-221000-
NORTH CENTRAL ILLINOIS

CITY           SKY/WX    TMP DP  RH WIND       PRES   REMARKS
ROCKFORD       CLOUDY    67  57  70 S15       29.89F
FREEPORT*      CLOUDY    64  56  76 S9        29.90F
ROCHELLE*      CLOUDY    65  58  77 S10G20    29.90F
DE KALB*       CLOUDY    65  57  75 S14G22    29.92F
PERU*          MOCLDY    64  56  75 S12       29.90F
$$

ILZ005-006-012>014-019>023-221000-
NORTHEAST ILLINOIS

CITY           SKY/WX    TMP DP  RH WIND       PRES   REMARKS
CHICAGO-OHARE  CLOUDY    67  56  67 S17       29.94F
CHICAGO-MIDWAY MOCLDY    67  56  67 S14       29.95F
AURORA         CLOUDY    66  57  72 S12G23    29.93F
LANSING*       MOCLDY    63  55  77 S10       29.98F
JOLIET*        CLOUDY    68  59  73 S10       29.95S
WAUKEGAN       CLOUDY    68  57  68 S17       29.92F
DUPAGE AIRPORT CLOUDY    67  58  72 S14       29.94F
KANKAKEE*      CLEAR     66  56  70 S13G20    29.97F
WHEELING       PTCLDY    67  58  72 S12       29.95F
MORRIS*        MOCLDY    66  57  73 S10G20    29.92F
ROMEOVILLE*    CLOUDY    66  57  74 S13       29.95F
NORTHERLY ISL    N/A     65  52  62 SE9         N/A
$$

LMZ740>746-221000-
SOUTHERN LAKE MICHIGAN

STATION/POSITION SKY/WX   TEMP    WIND        PRES    VSBY  WAVE
                          AIR SEA DIR/SP/G                  HT/PER
                          (F)     (DEG/KT/KT) (MB)    (MI)  (FT/S)
SOUTHERN BUOY              63 60  150/ 17/ 21 1014.9F         4/ 5
WILMETTE HARBOR            61 58  150/ 14/ 16   N/A           3/ 4
HARRISON CRIB              64     180/ 15/ 16   N/A
BURNHAM HARBOR             65     160/  9/ 13   N/A
CALUMET HARBOR             65     170/  9/ 12 1014.2F
BURNS HARBOR               66     170/ 11/ 21 1015.9F
MICHIGAN CITY              65     150/ 13/ 17   N/A
MICHIGAN CITY 6N           63 58  180/ 16/ 19   N/A           2/ 2
ST. JOSEPH                 65 59  180/ 16/ 21 1016.2          2/ 4
$$

ILZ025>027-034>036-040-047-049-050-058-095>099-221000-
WEST-CENTRAL ILLINOIS

CITY           SKY/WX    TMP DP  RH WIND       PRES   REMARKS
QUINCY         LGT RAIN  63  60  90 NW16G24   29.87R
MACOMB*        TSTM      65  61  89 NW13      29.87R
JACKSONVILLE*  TSTM      68  61  78 S13G23    29.87S
PITTSFIELD*    CLOUDY    69  64  83 SE14      29.85F
$$

ILZ028>032-037-038-041>044-048-051>054-059>061-221000-
CENTRAL ILLINOIS

CITY           SKY/WX    TMP DP  RH WIND       PRES   REMARKS
PONTIAC        PTCLDY    65  61  85 S16G24    29.94S
BLOOMINGTON    CLOUDY    64  59  83 S17       29.93F
DECATUR        CLOUDY    67  59  75 S18G29    29.94F
PEORIA         CLOUDY    67  60  78 S20G28    29.88F
LACON*         MOCLDY    67  59  75 S12G21    29.87F
LINCOLN*       CLOUDY    68  61  78 S16G25    29.91S
SPRINGFIELD    CLOUDY    70  62  76 S16G25    29.90F
TAYLORVILLE    CLOUDY    67  59  77 S14G20    29.93S
$$

ILZ033-039-045-046-055>057-062-063-221000-
EAST-CENTRAL ILLINOIS

CITY           SKY/WX    TMP DP  RH WIND       PRES   REMARKS
CHAMPAIGN      PTCLDY    66  57  72 SE17      29.97F
DANVILLE*      PTCLDY    64  54  71 S10       29.98F
RANTOUL*       CLOUDY    66  59  79 S12       29.97F
MATTOON        CLEAR     64  58  80 SE13      29.97F
PARIS*         PTCLDY    62  55  80 SE12      30.02F
$$

ILZ079-100>102-221000-
SOUTHWEST ILLINOIS

CITY           SKY/WX    TMP DP  RH WIND       PRES   REMARKS
ALTON          CLOUDY    69  63  80 SE10G20   29.91S
BELLEVILLE     CLOUDY    70  61  73 S16         N/A
CAHOKIA*       CLOUDY    72  61  68 S13G21    29.90S
SPARTA*        CLOUDY    69  61  75 S13G20    29.95S
$$

ILZ064>066-069>071-074>076-080>082-084>086-088>090-092>094-221000-
SOUTH-CENTRAL ILLINOIS

CITY           SKY/WX    TMP DP  RH WIND       PRES   REMARKS
CARBONDALE     CLEAR     69  62  78 S16G25    29.96F
CAIRO*         CLOUDY    68  62  80 S10       29.99F
EFFINGHAM*     MOCLDY    66  59  78 SE14G21   30.00F
MARION         MOCLDY    70  62  74 S14       29.99F
MT. VERNON     MOCLDY    68  61  78 S10       29.99F
CENTRALIA*     MOCLDY    68  62  79 SE12      29.96S
SALEM*         CLOUDY    68  60  76 SE10      29.97F
METROPOLIS*    MOCLDY    68  61  77 SE8G17    30.02F
$$

ILZ067-068-072-073-078-083-087-091-221000-
SOUTHEAST ILLINOIS

CITY           SKY/WX    TMP DP  RH WIND       PRES   REMARKS
LAWRENCEVILLE  CLOUDY    64  55  72 S12       30.05F
FLORA*         CLOUDY    66  59  79 SE10      30.00F
FAIRFIELD*     CLOUDY    66  59  77 SE7       30.00F
HARRISBURG*    CLOUDY    68  61  77 S10       30.02F
ROBINSON*      MOCLDY    62  55  78 S9        30.05F
CARMI*         CLOUDY    63  59  85 SE10      30.02F
$$

ABBREVIATIONS USED IN REMARKS
   TC - TEMPERATURE IN CELSIUS
  WCI - WIND CHILL INDEX
   HX - HEAT INDEX
  VSB - VISIBILITY
$$





USA.gov is the U.S. government's official web portal to all federal, state and local government web resources and services.